Home > Weather > Ås > Past weeks

Flag for Norway Weather for the Past 2 Weeks in Ås, Norway

Now
48 °F

Partly sunny.


Feels Like: 38 °F
Forecast: 41 / 56 °F
Wind: 47 mph from South

Location: Statfjord B

Current Time: May 4, 2016 at 7:54:24 PM

Latest Report: May 4, 2016 at 6:50 PM


Visibility: N/A

Pressure: 30.01 "Hg

Humidity: 82%

Dew Point: 43 °F

Location of ÅsLocation

Historic Weather in Ås — Graph

°F

Ås Temperature Yesterday

Maximum temperature yesterday: 48 °F (at 2:20 PM)
Minimum temperature yesterday: 45 °F (at 12:50 AM)
Average temperature yesterday: 46 °F

High & Low Weather Summary for the Past Weeks

 TemperatureHumidityPressure
High50 °F (May 4, 8:50 AM)100% (Apr 20, 2:20 PM)30.33 "Hg (Apr 20, 2:20 PM)
Low30 °F (Apr 23, 6:20 AM)50% (Apr 28, 10:50 AM)29.53 "Hg (May 2, 9:50 AM)
Average42 °F77%29.92 "Hg
* Reported Apr 19 6:20 PM — May 4 6:20 PM, Ås, Weather by CustomWeather, © 2016

Note: Actual official high and low records may vary slightly from our data, if they occured in-between our weather recording intervals... More about our weather records

Advertising

Ås Weather History for the Previous 24 Hours

Scroll right to see more
 ConditionsComfort  
Time TempWeatherWind HumidityBarometerVisibility
6:20 PM
Wed, May 4
48 °FPartly sunny.46 mph82%30.01 "HgN/A
5:50 PM48 °FPartly sunny.47 mph82%30.01 "HgN/A
5:20 PM48 °FPartly sunny.46 mph82%30.04 "HgN/A
4:20 PM48 °FPartly sunny.47 mph82%30.04 "HgN/A
3:50 PM48 °FPartly sunny.46 mph82%30.04 "HgN/A
3:20 PM48 °FScattered clouds.43 mph82%30.04 "HgN/A
2:50 PM48 °FPartly sunny.40 mph82%30.07 "HgN/A
2:20 PM48 °FScattered clouds.38 mph82%30.07 "HgN/A
12:50 PM48 °FScattered clouds.39 mph82%30.07 "HgN/A
12:20 PM48 °FPartly sunny.43 mph82%30.07 "HgN/A
11:50 AM48 °FCool.36 mph76%30.07 "HgN/A
11:20 AM48 °FScattered clouds.36 mph76%30.07 "HgN/A
10:50 AM48 °FPartly sunny.36 mph82%30.09 "HgN/A
9:50 AM48 °FScattered clouds.30 mph82%30.09 "HgN/A
9:20 AM46 °FCool.30 mph87%30.09 "HgN/A
8:50 AM50 °FCool.32 mph76%30.09 "HgN/A
7:50 AM46 °FCool.29 mph87%30.09 "HgN/A
6:50 AM46 °FCool.25 mph87%30.09 "HgN/A
6:20 AM46 °FPartly sunny.29 mph87%30.07 "HgN/A
5:50 AM46 °FPassing clouds.28 mph87%30.07 "HgN/A
5:20 AM46 °FPassing clouds.26 mph87%30.07 "HgN/A
4:50 AM46 °FPassing clouds.28 mph87%30.07 "HgN/A
4:20 AM46 °FPassing clouds.28 mph87%30.04 "HgN/A
3:50 AM45 °FQuite cool.28 mph93%30.04 "HgN/A
3:20 AM46 °FCool.29 mph87%30.04 "HgN/A
2:50 AM46 °FCool.28 mph87%30.01 "HgN/A
2:20 AM46 °FPassing clouds.29 mph87%30.01 "HgN/A
1:50 AM46 °FPassing clouds.30 mph82%30.01 "HgN/A
12:50 AM46 °FCool.30 mph87%30.01 "HgN/A
12:20 AM46 °FCool.25 mph87%29.98 "HgN/A
11:50 PM
Tue, May 3
46 °FCool.29 mph82%29.98 "HgN/A
11:20 PM46 °FPassing clouds.25 mph87%29.98 "HgN/A
10:50 PM46 °FCool.28 mph82%29.95 "HgN/A
10:20 PM46 °FCool.28 mph82%29.95 "HgN/A
9:50 PM46 °FCool.29 mph82%29.92 "HgN/A
9:20 PM46 °FCool.28 mph82%29.92 "HgN/A
8:50 PM46 °FCool.30 mph76%29.89 "HgN/A
8:20 PM46 °FCool.26 mph82%29.89 "HgN/A
7:50 PM46 °FScattered clouds.26 mph76%29.89 "HgN/A
7:20 PM46 °FPartly sunny.28 mph87%29.86 "HgN/A
Weather by CustomWeather, © 2016

See weather overviewHow to use our weather pages